Location: Bretagne
(43.8474°N, 0.4650°W)
Time: 00:06:39
(UTC+00:00)

Envisat - Pass Details

Date: 10 March 2026
Orbit: 761 x 762 km, 98.4° (Epoch: 13 April)

Event Time Altitude Azimuth Distance (km) Brightness Sun altitude
Rises 04:15:18 0° 357° (N) 3,235 6.4 -23.6°
Reaches altitude 10° 04:18:26 10° 337° (NNW) 2,304 5.4 -23.1°
Enters shadow 04:19:27 13° 326° (NNW) 2,092 5.1 -22.9°
